Weather History for KMTC - November, 2013

Change the Weather History Date:

Monday, November 11, 2013

  Actual Average Record
Temperature  
Mean Temperature 35 °F -  
Max Temperature 42 °F 45 °F 69 °F (1964)
Min Temperature 28 °F 32 °F 20 °F (1976)
Degree Days  
Heating Degree Days 30    
Moisture  
Dew Point 31 °F    
Average Humidity 81    
Maximum Humidity 100    
Minimum Humidity 66    
Precipitation  
Precipitation 0.09 in - - ()
Sea Level Pressure  
Sea Level Pressure 30.11 in    
Wind  
Wind Speed 11 mph (WNW)    
Max Wind Speed 22 mph    
Max Gust Speed 28 mph    
Visibility 9 miles    
Events Rain , Snow    
Averages and records for this station are not official NWS values.
T = Trace of Precipitation, MM = Missing Value Source: NWS Daily Summary

Daily Weather History Graph

Daily Weather History Graph

Search for Another Location

Airport or City:

Trip Planner

Search our weather history database for the weather conditions in past years. The results will help you decide how hot, cold, wet, or windy it might be!

Date:

Astronomy

Nov. 11, 2013 Rise Set
Actual Time 7:18 AM EST 5:12 PM EST
Civil Twilight 6:47 AM EST 5:42 PM EST
Nautical Twilight 6:14 AM EST 6:16 PM EST
Astronomical Twilight 5:40 AM EST 6:49 PM EST
Moon 1:59 PM EST (11/11) 12:54 AM EST (11/11)
Length of Visible Light 10h 54m
Length of Day
9h 54m
Waxing Gibbous, 66% of the Moon is Illuminated
Nov 11
Waxing Gibbous
Nov 17
Full
Nov 25
Last Quarter
Dec 2
New
Dec 9
First Quarter

Hourly Weather History & Observations

Time (EST) Temp. Windchill Dew Point Humidity Pressure Visibility Wind Dir Wind Speed Gust Speed Precip Events Conditions
12:58 AM 37.0 °F 33.3 °F 29.7 °F 75% 30.22 in 10.0 mi SSW 4.6 mph - N/A   Overcast
1:58 AM 36.9 °F 32.2 °F 30.0 °F 76% 30.22 in 10.0 mi SSW 5.8 mph - N/A   Overcast
2:58 AM 36.7 °F 29.4 °F 31.5 °F 81% 30.17 in 10.0 mi SSW 10.4 mph - N/A   Scattered Clouds
3:58 AM 38.5 °F 32.7 °F 31.1 °F 75% 30.16 in 10.0 mi SSW 8.1 mph - N/A   Partly Cloudy
4:58 AM 40.5 °F 34.1 °F 30.7 °F 68% 30.13 in 10.0 mi SSW 10.4 mph - N/A   Partly Cloudy
5:58 AM 41.2 °F 34.5 °F 30.7 °F 66% 30.12 in 10.0 mi SW 11.5 mph - N/A   Partly Cloudy
6:58 AM 41.2 °F 34.5 °F 30.7 °F 66% 30.09 in 10.0 mi SSW 11.5 mph - N/A   Overcast
7:58 AM 41.4 °F 34.7 °F 31.3 °F 67% 30.08 in 10.0 mi SSW 11.5 mph - N/A   Overcast
8:58 AM 42.1 °F 34.9 °F 31.5 °F 66% 30.06 in 10.0 mi SW 13.8 mph - N/A   Overcast
9:58 AM 42.6 °F 35.6 °F 31.8 °F 66% 30.05 in 10.0 mi SW 13.8 mph 20.7 mph N/A   Overcast
10:30 AM 42.8 °F 36.6 °F 32.0 °F 66% 30.04 in 10.0 mi WSW 11.5 mph - N/A Rain Light Rain
10:58 AM 41.9 °F 35.0 °F 34.5 °F 75% 30.07 in 10.0 mi WSW 12.7 mph - 0.00 in Rain Light Rain
11:58 AM 41.7 °F 35.6 °F 35.8 °F 79% 30.04 in 10.0 mi WSW 10.4 mph - 0.00 in Rain Light Rain
12:09 PM 42.8 °F 36.2 °F 35.6 °F 76% 30.00 in 10.0 mi WSW 12.7 mph - N/A   Clear
12:12 PM 42.8 °F 36.6 °F 35.6 °F 76% 30.00 in 10.0 mi WSW 11.5 mph - N/A Rain Light Rain
12:58 PM 42.8 °F 35.8 °F 37.0 °F 80% 30.01 in 10.0 mi WSW 13.8 mph 21.9 mph 0.01 in Rain Light Rain
1:08 PM 42.8 °F 36.2 °F 37.4 °F 81% 29.99 in 10.0 mi WSW 12.7 mph - N/A Rain Light Rain
1:58 PM 42.3 °F 36.8 °F 39.6 °F 90% 30.01 in 10.0 mi West 9.2 mph - 0.02 in Rain Light Rain
2:08 PM 42.8 °F 37.0 °F 39.2 °F 87% 30.00 in 10.0 mi West 10.4 mph - N/A Rain Light Rain
2:43 PM 39.2 °F 30.8 °F 37.4 °F 93% 30.01 in 10.0 mi WNW 15.0 mph 23.0 mph N/A Rain Light Rain
2:58 PM 39.9 °F 32.5 °F 37.2 °F 90% 30.05 in 10.0 mi WNW 12.7 mph 20.7 mph 0.03 in Rain Light Rain
3:03 PM 39.2 °F 32.0 °F 37.4 °F 93% 30.02 in 10.0 mi WNW 11.5 mph - N/A Rain Light Rain
3:08 PM 39.2 °F 32.5 °F 35.6 °F 87% 30.02 in 10.0 mi WNW 10.4 mph - N/A Rain Light Rain
3:58 PM 35.8 °F 25.1 °F 33.4 °F 91% 30.08 in 10.0 mi North 19.6 mph 26.5 mph 0.02 in Snow Light Snow
4:08 PM 33.8 °F 22.8 °F 32.0 °F 93% 30.06 in 9.0 mi North 18.4 mph - N/A Snow Light Snow
4:53 PM 32.0 °F 21.6 °F 32.0 °F 100% 30.10 in 4.0 mi NNW 15.0 mph 25.3 mph N/A Snow Light Snow
4:58 PM 32.4 °F 21.7 °F 31.1 °F 95% 30.13 in 4.0 mi NNW 16.1 mph 24.2 mph 0.01 in Snow Light Snow
5:23 PM 32.0 °F 20.8 °F 32.0 °F 100% 30.11 in 6.0 mi North 17.3 mph 26.5 mph N/A Snow Light Snow
5:33 PM 32.0 °F 20.8 °F 30.2 °F 93% 30.12 in 5.0 mi North 17.3 mph - N/A Snow Light Snow
5:48 PM 32.0 °F 22.5 °F 30.2 °F 93% 30.12 in 7.0 mi North 12.7 mph - N/A Snow Light Snow
5:58 PM 31.3 °F 21.1 °F 30.0 °F 95% 30.16 in 6.0 mi North 13.8 mph - 0.00 in Snow Light Snow
6:03 PM 32.0 °F 21.2 °F 30.2 °F 93% 30.13 in 6.0 mi NNW 16.1 mph - N/A Snow Light Snow
6:08 PM 32.0 °F 19.5 °F 28.4 °F 87% 30.13 in 6.0 mi NNW 21.9 mph 27.6 mph N/A Snow Light Snow
6:17 PM 32.0 °F 21.2 °F 28.4 °F 87% 30.14 in 6.0 mi North 16.1 mph 27.6 mph N/A Rain Light Freezing Rain
6:22 PM 32.0 °F 20.5 °F 26.6 °F 80% 30.14 in 7.0 mi North 18.4 mph 27.6 mph N/A Rain Light Freezing Rain
6:27 PM 30.2 °F 17.8 °F 26.6 °F 86% 30.15 in 8.0 mi North 19.6 mph 25.3 mph N/A Rain Light Freezing Rain
6:31 PM 30.2 °F 18.1 °F 26.6 °F 86% 30.15 in 8.0 mi NNW 18.4 mph 24.2 mph N/A Rain Light Freezing Rain
6:46 PM 30.2 °F 21.3 °F 26.6 °F 86% 30.16 in 10.0 mi NW 10.4 mph - N/A Rain Light Freezing Rain
6:51 PM 30.2 °F 20.8 °F 26.6 °F 86% 30.16 in 10.0 mi NW 11.5 mph - N/A Snow Light Snow
6:58 PM 30.2 °F 21.9 °F 26.2 °F 85% 30.19 in 9.0 mi NNW 9.2 mph - 0.00 in Snow Light Snow
7:02 PM 30.2 °F 21.9 °F 26.6 °F 86% 30.16 in 10.0 mi NW 9.2 mph - N/A Rain Light Freezing Rain
7:32 PM 32.0 °F 24.2 °F 24.8 °F 75% 30.17 in 10.0 mi NW 9.2 mph - N/A   Scattered Clouds
7:58 PM 30.4 °F 20.5 °F 23.7 °F 76% 30.21 in 10.0 mi NNW 12.7 mph - 0.00 in   Mostly Cloudy
8:58 PM 29.3 °F 18.6 °F 20.7 °F 70% 30.23 in 10.0 mi NNW 13.8 mph - N/A   Clear
9:58 PM 29.1 °F 18.9 °F 20.3 °F 70% 30.25 in 10.0 mi NNW 12.7 mph - N/A   Clear
10:58 PM 28.9 °F 18.2 °F 20.1 °F 70% 30.27 in 10.0 mi NW 13.8 mph 20.7 mph N/A   Partly Cloudy
11:58 PM 28.0 °F 16.1 °F 18.1 °F 66% 30.29 in 10.0 mi NNW 16.1 mph 20.7 mph N/A   Mostly Cloudy